Year,Month,Day,Hour,Minute,Value (Times are PST for temperature in C)
2017,06,25,00,00,18.90
2017,06,25,00,01,18.90
2017,06,25,00,02,18.90
2017,06,25,00,03,18.90
2017,06,25,00,04,18.90
2017,06,25,00,05,18.90
2017,06,25,00,06,18.80
2017,06,25,00,07,18.80
2017,06,25,00,08,18.80
2017,06,25,00,09,18.80
2017,06,25,00,10,18.70
2017,06,25,00,11,18.70
2017,06,25,00,12,18.70
2017,06,25,00,13,18.60
2017,06,25,00,14,18.60
2017,06,25,00,15,18.60
2017,06,25,00,16,18.60
2017,06,25,00,17,18.50
2017,06,25,00,18,18.50
2017,06,25,00,19,18.50
2017,06,25,00,20,18.40
2017,06,25,00,21,18.40
2017,06,25,00,22,18.40
2017,06,25,00,23,18.40
2017,06,25,00,24,18.30
2017,06,25,00,25,18.30
2017,06,25,00,26,18.30
2017,06,25,00,27,18.20
2017,06,25,00,28,18.20
2017,06,25,00,29,18.20
2017,06,25,00,30,18.20
2017,06,25,00,31,18.20
2017,06,25,00,32,18.20
2017,06,25,00,33,18.20
2017,06,25,00,34,18.10
2017,06,25,00,35,18.10
2017,06,25,00,36,18.10
2017,06,25,00,37,18.10
2017,06,25,00,38,18.10
2017,06,25,00,39,18.10
2017,06,25,00,40,18.00
2017,06,25,00,41,17.90
2017,06,25,00,42,17.90
2017,06,25,00,43,17.90
2017,06,25,00,44,17.90
2017,06,25,00,45,17.90
2017,06,25,00,46,17.90
2017,06,25,00,47,17.90
2017,06,25,00,48,17.90
2017,06,25,00,49,17.90
2017,06,25,00,50,17.90
2017,06,25,00,51,17.90
2017,06,25,00,52,17.90
2017,06,25,00,53,17.80
2017,06,25,00,54,17.80
2017,06,25,00,55,17.80
2017,06,25,00,56,17.80
2017,06,25,00,57,17.80
2017,06,25,00,58,17.70
2017,06,25,00,59,17.70
2017,06,25,01,00,17.70
2017,06,25,01,01,17.70
2017,06,25,01,02,17.70
2017,06,25,01,03,17.60
2017,06,25,01,04,17.60
2017,06,25,01,05,17.60
2017,06,25,01,06,17.60
2017,06,25,01,07,17.50
2017,06,25,01,08,17.50
2017,06,25,01,09,17.50
2017,06,25,01,10,17.50
2017,06,25,01,11,17.50
2017,06,25,01,12,17.40
2017,06,25,01,13,17.40
2017,06,25,01,14,17.40
2017,06,25,01,15,17.40
2017,06,25,01,16,17.40
2017,06,25,01,17,17.40
2017,06,25,01,18,17.30
2017,06,25,01,19,17.30
2017,06,25,01,20,17.30
2017,06,25,01,21,17.30
2017,06,25,01,22,17.30
2017,06,25,01,23,17.30
2017,06,25,01,24,17.30
2017,06,25,01,25,17.30
2017,06,25,01,26,17.30
2017,06,25,01,27,17.30
2017,06,25,01,28,17.20
2017,06,25,01,29,17.20
2017,06,25,01,30,17.20
2017,06,25,01,31,17.20
2017,06,25,01,32,17.20
2017,06,25,01,33,17.20
2017,06,25,01,34,17.10
2017,06,25,01,35,17.10
2017,06,25,01,36,17.10
2017,06,25,01,37,17.10
2017,06,25,01,38,17.10
2017,06,25,01,39,17.00
2017,06,25,01,40,17.00
2017,06,25,01,41,17.00
2017,06,25,01,42,17.00
2017,06,25,01,43,17.00
2017,06,25,01,44,16.90
2017,06,25,01,45,16.90
2017,06,25,01,46,16.90
2017,06,25,01,47,16.90
2017,06,25,01,48,16.90
2017,06,25,01,49,16.90
2017,06,25,01,50,16.90
2017,06,25,01,51,16.90
2017,06,25,01,52,16.80
2017,06,25,01,53,16.80
2017,06,25,01,54,16.80
2017,06,25,01,55,16.80
2017,06,25,01,56,16.80
2017,06,25,01,57,16.80
2017,06,25,01,58,16.70
2017,06,25,01,59,16.70
2017,06,25,02,00,16.70
2017,06,25,02,01,16.70
2017,06,25,02,02,16.70
2017,06,25,02,03,16.70
2017,06,25,02,04,16.70
2017,06,25,02,05,16.70
2017,06,25,02,06,16.70
2017,06,25,02,07,16.60
2017,06,25,02,08,16.60
2017,06,25,02,09,16.60
2017,06,25,02,10,16.60
2017,06,25,02,11,16.60
2017,06,25,02,12,16.60
2017,06,25,02,13,16.60
2017,06,25,02,14,16.60
2017,06,25,02,15,16.60
2017,06,25,02,16,16.60
2017,06,25,02,17,16.60
2017,06,25,02,18,16.50
2017,06,25,02,19,16.40
2017,06,25,02,20,16.40
2017,06,25,02,21,16.40
2017,06,25,02,22,16.40
2017,06,25,02,23,16.40
2017,06,25,02,24,16.40
2017,06,25,02,25,16.40
2017,06,25,02,26,16.40
2017,06,25,02,27,16.40
2017,06,25,02,28,16.40
2017,06,25,02,29,16.40
2017,06,25,02,30,16.40
2017,06,25,02,31,16.40
2017,06,25,02,32,16.30
2017,06,25,02,33,16.30
2017,06,25,02,34,16.30
2017,06,25,02,35,16.30
2017,06,25,02,36,16.30
2017,06,25,02,37,16.30
2017,06,25,02,38,16.30
2017,06,25,02,39,16.20
2017,06,25,02,40,16.20
2017,06,25,02,41,16.20
2017,06,25,02,42,16.20
2017,06,25,02,43,16.20
2017,06,25,02,44,16.20
2017,06,25,02,45,16.20
2017,06,25,02,46,16.20
2017,06,25,02,47,16.20
2017,06,25,02,48,16.20
2017,06,25,02,49,16.20
2017,06,25,02,50,16.20
2017,06,25,02,51,16.20
2017,06,25,02,52,16.20
2017,06,25,02,53,16.20
2017,06,25,02,54,16.20
2017,06,25,02,55,16.20
2017,06,25,02,56,16.20
2017,06,25,02,57,16.20
2017,06,25,02,58,16.20
2017,06,25,02,59,16.20
2017,06,25,03,00,16.20
2017,06,25,03,01,16.20
2017,06,25,03,02,16.20
2017,06,25,03,03,16.10
2017,06,25,03,04,16.10
2017,06,25,03,05,16.10
2017,06,25,03,06,16.10
2017,06,25,03,07,16.10
2017,06,25,03,08,16.10
2017,06,25,03,09,16.10
2017,06,25,03,10,16.10
2017,06,25,03,11,16.10
2017,06,25,03,12,16.10
2017,06,25,03,13,16.00
2017,06,25,03,14,15.90
2017,06,25,03,15,15.90
2017,06,25,03,16,15.90
2017,06,25,03,17,15.90
2017,06,25,03,18,15.90
2017,06,25,03,19,15.90
2017,06,25,03,20,15.90
2017,06,25,03,21,15.90
2017,06,25,03,22,15.90
2017,06,25,03,23,15.90
2017,06,25,03,24,15.90
2017,06,25,03,25,15.90
2017,06,25,03,26,15.90
2017,06,25,03,27,15.90
2017,06,25,03,28,15.90
2017,06,25,03,29,15.90
2017,06,25,03,30,15.90
2017,06,25,03,31,15.90
2017,06,25,03,32,15.90
2017,06,25,03,33,16.00
2017,06,25,03,34,16.10
2017,06,25,03,35,16.10
2017,06,25,03,36,16.10
2017,06,25,03,37,16.10
2017,06,25,03,38,16.10
2017,06,25,03,39,16.10
2017,06,25,03,40,16.10
2017,06,25,03,41,16.10
2017,06,25,03,42,16.10
2017,06,25,03,43,16.00
2017,06,25,03,44,15.90
2017,06,25,03,45,15.90
2017,06,25,03,46,15.90
2017,06,25,03,47,15.90
2017,06,25,03,48,15.90
2017,06,25,03,49,15.80
2017,06,25,03,50,15.80
2017,06,25,03,51,15.80
2017,06,25,03,52,15.80
2017,06,25,03,53,15.80
2017,06,25,03,54,15.80
2017,06,25,03,55,15.80
2017,06,25,03,56,15.80
2017,06,25,03,57,15.80
2017,06,25,03,58,15.80
2017,06,25,03,59,15.80
2017,06,25,04,00,15.80
2017,06,25,04,01,15.80
2017,06,25,04,02,15.70
2017,06,25,04,03,15.70
2017,06,25,04,04,15.70
2017,06,25,04,05,15.70
2017,06,25,04,06,15.70
2017,06,25,04,07,15.60
2017,06,25,04,08,15.60
2017,06,25,04,09,15.60
2017,06,25,04,10,15.60
2017,06,25,04,11,15.50
2017,06,25,04,12,15.50
2017,06,25,04,13,15.50
2017,06,25,04,14,15.50
2017,06,25,04,15,15.50
2017,06,25,04,16,15.50
2017,06,25,04,17,15.50
2017,06,25,04,18,15.50
2017,06,25,04,19,15.50
2017,06,25,04,20,15.50
2017,06,25,04,21,15.50
2017,06,25,04,22,15.50
2017,06,25,04,23,15.50
2017,06,25,04,24,15.50
2017,06,25,04,25,15.40
2017,06,25,04,26,15.40
2017,06,25,04,27,15.40
2017,06,25,04,28,15.40
2017,06,25,04,29,15.40
2017,06,25,04,30,15.40
2017,06,25,04,31,15.40
2017,06,25,04,32,15.40
2017,06,25,04,33,15.40
2017,06,25,04,34,15.40
2017,06,25,04,35,15.40
2017,06,25,04,36,15.40
2017,06,25,04,37,15.40
2017,06,25,04,38,15.30
2017,06,25,04,39,15.30
2017,06,25,04,40,15.30
2017,06,25,04,41,15.30
2017,06,25,04,42,15.30
2017,06,25,04,43,15.30
2017,06,25,04,44,15.30
2017,06,25,04,45,15.30
2017,06,25,04,46,15.30
2017,06,25,04,47,15.30
2017,06,25,04,48,15.30
2017,06,25,04,49,15.30
2017,06,25,04,50,15.30
2017,06,25,04,51,15.30
2017,06,25,04,52,15.20
2017,06,25,04,53,15.20
2017,06,25,04,54,15.20
2017,06,25,04,55,15.20
2017,06,25,04,56,15.20
2017,06,25,04,57,15.20
2017,06,25,04,58,15.20
2017,06,25,04,59,15.20
2017,06,25,05,00,15.20
2017,06,25,05,01,15.20
2017,06,25,05,02,15.20
2017,06,25,05,03,15.20
2017,06,25,05,04,15.20
2017,06,25,05,05,15.20
2017,06,25,05,06,15.20
2017,06,25,05,07,15.20
2017,06,25,05,08,15.10
2017,06,25,05,09,15.10
2017,06,25,05,10,15.10
2017,06,25,05,11,15.10
2017,06,25,05,12,15.10
2017,06,25,05,13,15.10
2017,06,25,05,14,15.10
2017,06,25,05,15,15.10
2017,06,25,05,16,15.10
2017,06,25,05,17,15.10
2017,06,25,05,18,15.10
2017,06,25,05,19,15.10
2017,06,25,05,20,15.10
2017,06,25,05,21,15.10
2017,06,25,05,22,15.10
2017,06,25,05,23,15.10
2017,06,25,05,24,15.10
2017,06,25,05,25,15.20
2017,06,25,05,26,15.20
2017,06,25,05,27,15.20
2017,06,25,05,28,15.20
2017,06,25,05,29,15.10
2017,06,25,05,30,15.10
2017,06,25,05,31,15.10
2017,06,25,05,32,15.20
2017,06,25,05,33,15.20
2017,06,25,05,34,15.20
2017,06,25,05,35,15.30
2017,06,25,05,36,15.30
2017,06,25,05,37,15.30
2017,06,25,05,38,15.30
2017,06,25,05,39,15.30
2017,06,25,05,40,15.30
2017,06,25,05,41,15.30
2017,06,25,05,42,15.40
2017,06,25,05,43,15.40
2017,06,25,05,44,15.40
2017,06,25,05,45,15.40
2017,06,25,05,46,15.40
2017,06,25,05,47,15.30
2017,06,25,05,48,15.30
2017,06,25,05,49,15.30
2017,06,25,05,50,15.40
2017,06,25,05,51,15.40
2017,06,25,05,52,15.40
2017,06,25,05,53,15.40
2017,06,25,05,54,15.50
2017,06,25,05,55,15.50
2017,06,25,05,56,15.60
2017,06,25,05,57,15.60
2017,06,25,05,58,15.60
2017,06,25,05,59,15.70
2017,06,25,06,00,15.70
2017,06,25,06,01,15.70
2017,06,25,06,02,15.70
2017,06,25,06,03,15.80
2017,06,25,06,04,15.80
2017,06,25,06,05,15.80
2017,06,25,06,06,15.80
2017,06,25,06,07,15.80
2017,06,25,06,08,15.90
2017,06,25,06,09,15.90
2017,06,25,06,10,15.90
2017,06,25,06,11,15.90
2017,06,25,06,12,15.90
2017,06,25,06,13,15.90
2017,06,25,06,14,16.00
2017,06,25,06,15,16.10
2017,06,25,06,16,16.10
2017,06,25,06,17,16.10
2017,06,25,06,18,16.10
2017,06,25,06,19,16.10
2017,06,25,06,20,16.20
2017,06,25,06,21,16.30
2017,06,25,06,22,16.40
2017,06,25,06,23,16.50
2017,06,25,06,24,16.60
2017,06,25,06,25,16.70
2017,06,25,06,26,16.70
2017,06,25,06,27,16.80
2017,06,25,06,28,17.00
2017,06,25,06,29,17.20
2017,06,25,06,30,17.40
2017,06,25,06,31,17.50
2017,06,25,06,32,17.50
2017,06,25,06,33,17.60
2017,06,25,06,34,17.60
2017,06,25,06,35,17.60
2017,06,25,06,36,17.60
2017,06,25,06,37,17.60
2017,06,25,06,38,17.60
2017,06,25,06,39,17.60
2017,06,25,06,40,17.60
2017,06,25,06,41,17.60
2017,06,25,06,42,17.60
2017,06,25,06,43,17.60
2017,06,25,06,44,17.50
2017,06,25,06,45,17.50
2017,06,25,06,46,17.40
2017,06,25,06,47,17.30
2017,06,25,06,48,17.30
2017,06,25,06,49,17.20
2017,06,25,06,50,17.10
2017,06,25,06,51,17.00
2017,06,25,06,52,17.00
2017,06,25,06,53,16.90
2017,06,25,06,54,16.90
2017,06,25,06,55,16.80
2017,06,25,06,56,16.80
2017,06,25,06,57,16.70
2017,06,25,06,58,16.70
2017,06,25,06,59,16.70
2017,06,25,07,00,16.70
2017,06,25,07,01,16.70
2017,06,25,07,02,16.70
2017,06,25,07,03,16.70
2017,06,25,07,04,16.80
2017,06,25,07,05,16.80
2017,06,25,07,06,16.90
2017,06,25,07,07,16.90
2017,06,25,07,08,17.00
2017,06,25,07,09,17.00
2017,06,25,07,10,17.20
2017,06,25,07,11,17.30
2017,06,25,07,12,17.40
2017,06,25,07,13,17.50
2017,06,25,07,14,17.60
2017,06,25,07,15,17.80
2017,06,25,07,16,17.90
2017,06,25,07,17,18.00
2017,06,25,07,18,18.20
2017,06,25,07,19,18.30
2017,06,25,07,20,18.40
2017,06,25,07,21,18.50
2017,06,25,07,22,18.60
2017,06,25,07,23,18.70
2017,06,25,07,24,18.80
2017,06,25,07,25,18.90
2017,06,25,07,26,19.00
2017,06,25,07,27,19.10
2017,06,25,07,28,19.10
2017,06,25,07,29,19.20
2017,06,25,07,30,19.30
2017,06,25,07,31,19.30
2017,06,25,07,32,19.30
2017,06,25,07,33,19.40
2017,06,25,07,34,19.40
2017,06,25,07,35,19.40
2017,06,25,07,36,19.40
2017,06,25,07,37,19.40
2017,06,25,07,38,19.40
2017,06,25,07,39,19.30
2017,06,25,07,40,19.30
2017,06,25,07,41,19.30
2017,06,25,07,42,19.30
2017,06,25,07,43,19.30
2017,06,25,07,44,19.30
2017,06,25,07,45,19.20
2017,06,25,07,46,19.10
2017,06,25,07,47,19.10
2017,06,25,07,48,19.10
2017,06,25,07,49,19.10
2017,06,25,07,50,19.10
2017,06,25,07,51,19.10
2017,06,25,07,52,19.10
2017,06,25,07,53,19.10
2017,06,25,07,54,19.20
2017,06,25,07,55,19.30
2017,06,25,07,56,19.40
2017,06,25,07,57,19.40
2017,06,25,07,58,19.60
2017,06,25,07,59,19.70
2017,06,25,08,00,19.90
2017,06,25,08,01,20.00
2017,06,25,08,02,20.20
2017,06,25,08,03,20.40
2017,06,25,08,04,20.60
2017,06,25,08,05,20.80
2017,06,25,08,06,21.00
2017,06,25,08,07,21.20
2017,06,25,08,08,21.40
2017,06,25,08,09,21.60
2017,06,25,08,10,21.80
2017,06,25,08,11,21.90
2017,06,25,08,12,22.00
2017,06,25,08,13,22.10
2017,06,25,08,14,22.20
2017,06,25,08,15,22.30
2017,06,25,08,16,22.40
2017,06,25,08,17,22.50
2017,06,25,08,18,22.70
2017,06,25,08,19,22.80
2017,06,25,08,20,22.90
2017,06,25,08,21,23.00
2017,06,25,08,22,23.20
2017,06,25,08,23,23.30
2017,06,25,08,24,23.30
2017,06,25,08,25,23.40
2017,06,25,08,26,23.40
2017,06,25,08,27,23.50
2017,06,25,08,28,23.60
2017,06,25,08,29,23.70
2017,06,25,08,30,23.70
2017,06,25,08,31,23.70
2017,06,25,08,32,23.70
2017,06,25,08,33,23.70
2017,06,25,08,34,23.70
2017,06,25,08,35,23.70
2017,06,25,08,36,23.70
2017,06,25,08,37,23.80
2017,06,25,08,38,23.80
2017,06,25,08,39,23.80
2017,06,25,08,40,23.90
2017,06,25,08,41,23.90
2017,06,25,08,42,24.00
2017,06,25,08,43,24.10
2017,06,25,08,44,24.10
2017,06,25,08,45,24.20
2017,06,25,08,46,24.20
2017,06,25,08,47,24.20
2017,06,25,08,48,24.20
2017,06,25,08,49,24.20
2017,06,25,08,50,24.20
2017,06,25,08,51,24.20
2017,06,25,08,52,24.20
2017,06,25,08,53,24.20
2017,06,25,08,54,24.20
2017,06,25,08,55,24.20
2017,06,25,08,56,24.30
2017,06,25,08,57,24.30
2017,06,25,08,58,24.40
2017,06,25,08,59,24.40
2017,06,25,09,00,24.40
2017,06,25,09,01,24.50
2017,06,25,09,02,24.50
2017,06,25,09,03,24.50
2017,06,25,09,04,24.50
2017,06,25,09,05,24.50
2017,06,25,09,06,24.60
2017,06,25,09,07,24.60
2017,06,25,09,08,24.60
2017,06,25,09,09,24.70
2017,06,25,09,10,24.70
2017,06,25,09,11,24.60
2017,06,25,09,12,24.70
2017,06,25,09,13,24.70
2017,06,25,09,14,24.60
2017,06,25,09,15,24.60
2017,06,25,09,16,24.70
2017,06,25,09,17,24.70
2017,06,25,09,18,24.80
2017,06,25,09,19,24.80
2017,06,25,09,20,24.90
2017,06,25,09,21,24.90
2017,06,25,09,22,24.90
2017,06,25,09,23,24.90
2017,06,25,09,24,24.90
2017,06,25,09,25,24.80
2017,06,25,09,26,24.80
2017,06,25,09,27,24.80
2017,06,25,09,28,24.80
2017,06,25,09,29,24.80
2017,06,25,09,30,24.80
2017,06,25,09,31,24.80
2017,06,25,09,32,24.80
2017,06,25,09,33,24.80
2017,06,25,09,34,24.80
2017,06,25,09,35,24.90
2017,06,25,09,36,24.90
2017,06,25,09,37,24.90
2017,06,25,09,38,25.00
2017,06,25,09,39,25.00
2017,06,25,09,40,25.00
2017,06,25,09,41,25.00
2017,06,25,09,42,25.00
2017,06,25,09,43,25.10
2017,06,25,09,44,25.10
2017,06,25,09,45,25.20
2017,06,25,09,46,25.20
2017,06,25,09,47,25.30
2017,06,25,09,48,25.30
2017,06,25,09,49,25.20
2017,06,25,09,50,25.20
2017,06,25,09,51,25.30
2017,06,25,09,52,25.20
2017,06,25,09,53,25.20
2017,06,25,09,54,25.20
2017,06,25,09,55,25.20
2017,06,25,09,56,25.20
2017,06,25,09,57,25.30
2017,06,25,09,58,25.30
2017,06,25,09,59,25.30
2017,06,25,10,00,25.40
2017,06,25,10,01,25.40
2017,06,25,10,02,25.50
2017,06,25,10,03,25.60
2017,06,25,10,04,25.70
2017,06,25,10,05,25.90
2017,06,25,10,06,26.00
2017,06,25,10,07,26.00
2017,06,25,10,08,26.00
2017,06,25,10,09,26.00
2017,06,25,10,10,26.00
2017,06,25,10,11,26.00
2017,06,25,10,12,26.00
2017,06,25,10,13,26.10
2017,06,25,10,14,26.10
2017,06,25,10,15,26.10
2017,06,25,10,16,26.10
2017,06,25,10,17,26.20
2017,06,25,10,18,26.20
2017,06,25,10,19,26.30
2017,06,25,10,20,26.20
2017,06,25,10,21,26.30
2017,06,25,10,22,26.40
2017,06,25,10,23,26.40
2017,06,25,10,24,26.40
2017,06,25,10,25,26.30
2017,06,25,10,26,26.20
2017,06,25,10,27,26.20
2017,06,25,10,28,26.10
2017,06,25,10,29,26.10
2017,06,25,10,30,26.10
2017,06,25,10,31,26.10
2017,06,25,10,32,26.10
2017,06,25,10,33,26.10
2017,06,25,10,34,26.10
2017,06,25,10,35,26.00
2017,06,25,10,36,25.90
2017,06,25,10,37,25.90
2017,06,25,10,38,25.90
2017,06,25,10,39,25.80
2017,06,25,10,40,25.80
2017,06,25,10,41,25.80
2017,06,25,10,42,25.80
2017,06,25,10,43,25.80
2017,06,25,10,44,25.80
2017,06,25,10,45,25.90
2017,06,25,10,46,25.90
2017,06,25,10,47,25.90
2017,06,25,10,48,26.00
2017,06,25,10,49,26.10
2017,06,25,10,50,26.20
2017,06,25,10,51,26.20
2017,06,25,10,52,26.30
2017,06,25,10,53,26.30
2017,06,25,10,54,26.30
2017,06,25,10,55,26.30
2017,06,25,10,56,26.30
2017,06,25,10,57,26.30
2017,06,25,10,58,26.20
2017,06,25,10,59,26.30
2017,06,25,11,00,26.30
2017,06,25,11,01,26.30
2017,06,25,11,02,26.30
2017,06,25,11,03,26.40
2017,06,25,11,04,26.40
2017,06,25,11,05,26.40
2017,06,25,11,06,26.30
2017,06,25,11,07,26.30
2017,06,25,11,08,26.20
2017,06,25,11,09,26.20
2017,06,25,11,10,26.10
2017,06,25,11,11,26.10
2017,06,25,11,12,26.00
2017,06,25,11,13,26.00
2017,06,25,11,14,26.00
2017,06,25,11,15,26.00
2017,06,25,11,16,26.10
2017,06,25,11,17,26.10
2017,06,25,11,18,26.10
2017,06,25,11,19,26.20
2017,06,25,11,20,26.20
2017,06,25,11,21,26.30
2017,06,25,11,22,26.30
2017,06,25,11,23,26.30
2017,06,25,11,24,26.40
2017,06,25,11,25,26.30
2017,06,25,11,26,26.30
2017,06,25,11,27,26.30
2017,06,25,11,28,26.20
2017,06,25,11,29,26.10
2017,06,25,11,30,26.10
2017,06,25,11,31,26.20
2017,06,25,11,32,26.20
2017,06,25,11,33,26.20
2017,06,25,11,34,26.10
2017,06,25,11,35,26.10
2017,06,25,11,36,26.10
2017,06,25,11,37,26.10
2017,06,25,11,38,26.00
2017,06,25,11,39,26.00
2017,06,25,11,40,26.00
2017,06,25,11,41,26.00
2017,06,25,11,42,26.00
2017,06,25,11,43,26.10
2017,06,25,11,44,26.10
2017,06,25,11,45,26.20
2017,06,25,11,46,26.30
2017,06,25,11,47,26.40
2017,06,25,11,48,26.60
2017,06,25,11,49,26.70
2017,06,25,11,50,26.70
2017,06,25,11,51,26.80
2017,06,25,11,52,26.70
2017,06,25,11,53,26.80
2017,06,25,11,54,26.80
2017,06,25,11,55,26.80
2017,06,25,11,56,26.70
2017,06,25,11,57,26.70
2017,06,25,11,58,26.70
2017,06,25,11,59,26.70
2017,06,25,12,00,26.70
2017,06,25,12,01,26.70
2017,06,25,12,02,26.60
2017,06,25,12,03,26.60
2017,06,25,12,04,26.60
2017,06,25,12,05,26.50
2017,06,25,12,06,26.50
2017,06,25,12,07,26.60
2017,06,25,12,08,26.70
2017,06,25,12,09,26.70
2017,06,25,12,10,26.60
2017,06,25,12,11,26.60
2017,06,25,12,12,26.60
2017,06,25,12,13,26.60
2017,06,25,12,14,26.60
2017,06,25,12,15,26.60
2017,06,25,12,16,26.60
2017,06,25,12,17,26.60
2017,06,25,12,18,26.60
2017,06,25,12,19,26.60
2017,06,25,12,20,26.60
2017,06,25,12,21,26.70
2017,06,25,12,22,26.70
2017,06,25,12,23,26.70
2017,06,25,12,24,26.80
2017,06,25,12,25,26.90
2017,06,25,12,26,26.90
2017,06,25,12,27,26.90
2017,06,25,12,28,27.00
2017,06,25,12,29,27.10
2017,06,25,12,30,27.20
2017,06,25,12,31,27.20
2017,06,25,12,32,27.10
2017,06,25,12,33,27.00
2017,06,25,12,34,26.90
2017,06,25,12,35,26.90
2017,06,25,12,36,26.90
2017,06,25,12,37,27.00
2017,06,25,12,38,27.10
2017,06,25,12,39,27.10
2017,06,25,12,40,27.20
2017,06,25,12,41,27.30
2017,06,25,12,42,27.30
2017,06,25,12,43,27.40
2017,06,25,12,44,27.40
2017,06,25,12,45,27.40
2017,06,25,12,46,27.40
2017,06,25,12,47,27.50
2017,06,25,12,48,27.60
2017,06,25,12,49,27.60
2017,06,25,12,50,27.60
2017,06,25,12,51,27.60
2017,06,25,12,52,27.60
2017,06,25,12,53,27.70
2017,06,25,12,54,27.70
2017,06,25,12,55,27.70
2017,06,25,12,56,27.70
2017,06,25,12,57,27.70
2017,06,25,12,58,27.70
2017,06,25,12,59,27.80
2017,06,25,13,00,27.80
2017,06,25,13,01,27.90
2017,06,25,13,02,28.00
2017,06,25,13,03,28.00
2017,06,25,13,04,28.10
2017,06,25,13,05,28.10
2017,06,25,13,06,28.20
2017,06,25,13,07,28.20
2017,06,25,13,08,28.20
2017,06,25,13,09,28.10
2017,06,25,13,10,28.00
2017,06,25,13,11,27.90
2017,06,25,13,12,28.00
2017,06,25,13,13,28.00
2017,06,25,13,14,28.00
2017,06,25,13,15,28.00
2017,06,25,13,16,27.90
2017,06,25,13,17,27.90
2017,06,25,13,18,27.80
2017,06,25,13,19,27.80
2017,06,25,13,20,27.80
2017,06,25,13,21,27.80
2017,06,25,13,22,27.90
2017,06,25,13,23,28.00
2017,06,25,13,24,28.10
2017,06,25,13,25,28.10
2017,06,25,13,26,28.20
2017,06,25,13,27,28.30
2017,06,25,13,28,28.40
2017,06,25,13,29,28.50
2017,06,25,13,30,28.50
2017,06,25,13,31,28.40
2017,06,25,13,32,28.40
2017,06,25,13,33,28.40
2017,06,25,13,34,28.40
2017,06,25,13,35,28.30
2017,06,25,13,36,28.30
2017,06,25,13,37,28.30
2017,06,25,13,38,28.30
2017,06,25,13,39,28.30
2017,06,25,13,40,28.30
2017,06,25,13,41,28.30
2017,06,25,13,42,28.50
2017,06,25,13,43,28.60
2017,06,25,13,44,28.70
2017,06,25,13,45,28.80
2017,06,25,13,46,28.90
2017,06,25,13,47,28.90
2017,06,25,13,48,28.90
2017,06,25,13,49,28.90
2017,06,25,13,50,28.90
2017,06,25,13,51,28.90
2017,06,25,13,52,29.00
2017,06,25,13,53,29.10
2017,06,25,13,54,29.20
2017,06,25,13,55,29.10
2017,06,25,13,56,28.90
2017,06,25,13,57,28.60
2017,06,25,13,58,28.40
2017,06,25,13,59,28.20
2017,06,25,14,00,28.00
2017,06,25,14,01,27.80
2017,06,25,14,02,27.40
2017,06,25,14,03,27.10
2017,06,25,14,04,26.90
2017,06,25,14,05,26.70
2017,06,25,14,06,26.50
2017,06,25,14,07,26.40
2017,06,25,14,08,26.00
2017,06,25,14,09,25.70
2017,06,25,14,10,25.30
2017,06,25,14,11,25.10
2017,06,25,14,12,25.00
2017,06,25,14,13,25.10
2017,06,25,14,14,25.10
2017,06,25,14,15,25.00
2017,06,25,14,16,24.90
2017,06,25,14,17,24.80
2017,06,25,14,18,24.80
2017,06,25,14,19,24.90
2017,06,25,14,20,25.00
2017,06,25,14,21,25.00
2017,06,25,14,22,25.10
2017,06,25,14,23,25.20
2017,06,25,14,24,25.20
2017,06,25,14,25,25.20
2017,06,25,14,26,25.20
2017,06,25,14,27,25.10
2017,06,25,14,28,24.90
2017,06,25,14,29,24.80
2017,06,25,14,30,24.80
2017,06,25,14,31,24.80
2017,06,25,14,32,24.90
2017,06,25,14,33,24.90
2017,06,25,14,34,24.90
2017,06,25,14,35,24.80
2017,06,25,14,36,24.80
2017,06,25,14,37,24.70
2017,06,25,14,38,24.60
2017,06,25,14,39,24.60
2017,06,25,14,40,24.60
2017,06,25,14,41,24.50
2017,06,25,14,42,24.50
2017,06,25,14,43,24.40
2017,06,25,14,44,24.40
2017,06,25,14,45,24.40
2017,06,25,14,46,24.30
2017,06,25,14,47,24.20
2017,06,25,14,48,24.20
2017,06,25,14,49,24.10
2017,06,25,14,50,24.00
2017,06,25,14,51,24.10
2017,06,25,14,52,24.10
2017,06,25,14,53,24.10
2017,06,25,14,54,24.30
2017,06,25,14,55,24.40
2017,06,25,14,56,24.50
2017,06,25,14,57,24.50
2017,06,25,14,58,24.50
2017,06,25,14,59,24.60
2017,06,25,15,00,24.60
2017,06,25,15,01,24.60
2017,06,25,15,02,24.50
2017,06,25,15,03,24.60
2017,06,25,15,04,24.80
2017,06,25,15,05,24.80
2017,06,25,15,06,24.90
2017,06,25,15,07,24.90
2017,06,25,15,08,25.00
2017,06,25,15,09,25.00
2017,06,25,15,10,25.00
2017,06,25,15,11,25.00
2017,06,25,15,12,24.80
2017,06,25,15,13,24.80
2017,06,25,15,14,24.80
2017,06,25,15,15,24.70
2017,06,25,15,16,24.70
2017,06,25,15,17,24.60
2017,06,25,15,18,24.50
2017,06,25,15,19,24.50
2017,06,25,15,20,24.40
2017,06,25,15,21,24.30
2017,06,25,15,22,24.20
2017,06,25,15,23,24.20
2017,06,25,15,24,24.30
2017,06,25,15,25,24.40
2017,06,25,15,26,24.40
2017,06,25,15,27,24.40
2017,06,25,15,28,24.50
2017,06,25,15,29,24.40
2017,06,25,15,30,24.40
2017,06,25,15,31,24.40
2017,06,25,15,32,24.30
2017,06,25,15,33,24.30
2017,06,25,15,34,24.40
2017,06,25,15,35,24.50
2017,06,25,15,36,24.50
2017,06,25,15,37,24.50
2017,06,25,15,38,24.40
2017,06,25,15,39,24.40
2017,06,25,15,40,24.30
2017,06,25,15,41,24.40
2017,06,25,15,42,24.50
2017,06,25,15,43,24.60
2017,06,25,15,44,24.80
2017,06,25,15,45,25.00
2017,06,25,15,46,25.20
2017,06,25,15,47,25.40
2017,06,25,15,48,25.50
2017,06,25,15,49,25.50
2017,06,25,15,50,25.50
2017,06,25,15,51,25.60
2017,06,25,15,52,25.70
2017,06,25,15,53,25.80
2017,06,25,15,54,25.80
2017,06,25,15,55,25.80
2017,06,25,15,56,25.80
2017,06,25,15,57,25.80
2017,06,25,15,58,25.80
2017,06,25,15,59,25.90
2017,06,25,16,00,26.00
2017,06,25,16,01,26.10
2017,06,25,16,02,26.20
2017,06,25,16,03,26.40
2017,06,25,16,04,26.60
2017,06,25,16,05,26.60
2017,06,25,16,06,26.60
2017,06,25,16,07,26.70
2017,06,25,16,08,26.80
2017,06,25,16,09,26.80
2017,06,25,16,10,27.00
2017,06,25,16,11,27.10
2017,06,25,16,12,27.20
2017,06,25,16,13,27.30
2017,06,25,16,14,27.40
2017,06,25,16,15,27.60
2017,06,25,16,16,27.60
2017,06,25,16,17,27.60
2017,06,25,16,18,27.70
2017,06,25,16,19,27.70
2017,06,25,16,20,27.60
2017,06,25,16,21,27.40
2017,06,25,16,22,27.30
2017,06,25,16,23,27.30
2017,06,25,16,24,27.30
2017,06,25,16,25,27.30
2017,06,25,16,26,27.30
2017,06,25,16,27,27.30
2017,06,25,16,28,27.30
2017,06,25,16,29,27.30
2017,06,25,16,30,27.30
2017,06,25,16,31,27.40
2017,06,25,16,32,27.40
2017,06,25,16,33,27.60
2017,06,25,16,34,27.60
2017,06,25,16,35,27.70
2017,06,25,16,36,27.60
2017,06,25,16,37,27.50
2017,06,25,16,38,27.30
2017,06,25,16,39,27.20
2017,06,25,16,40,27.00
2017,06,25,16,41,26.70
2017,06,25,16,42,26.50
2017,06,25,16,43,26.20
2017,06,25,16,44,26.00
2017,06,25,16,45,25.80
2017,06,25,16,46,25.50
2017,06,25,16,47,25.30
2017,06,25,16,48,25.10
2017,06,25,16,49,25.00
2017,06,25,16,50,25.00
2017,06,25,16,51,25.00
2017,06,25,16,52,24.90
2017,06,25,16,53,24.90
2017,06,25,16,54,24.80
2017,06,25,16,55,24.80
2017,06,25,16,56,24.80
2017,06,25,16,57,24.90
2017,06,25,16,58,24.80
2017,06,25,16,59,24.80
2017,06,25,17,00,24.70
2017,06,25,17,01,24.50
2017,06,25,17,02,24.40
2017,06,25,17,03,24.30
2017,06,25,17,04,24.20
2017,06,25,17,05,24.20
2017,06,25,17,06,24.20
2017,06,25,17,07,24.30
2017,06,25,17,08,24.40
2017,06,25,17,09,24.50
2017,06,25,17,10,24.50
2017,06,25,17,11,24.70
2017,06,25,17,12,24.80
2017,06,25,17,13,24.80
2017,06,25,17,14,24.70
2017,06,25,17,15,24.70
2017,06,25,17,16,24.60
2017,06,25,17,17,24.50
2017,06,25,17,18,24.40
2017,06,25,17,19,24.30